CW4740 Weather Reports


Display with metric or nautical units.
time (UTC)temp
F
wind
direction
speed
MPH
gust
MPH
rain 1hr
in
rain 24hr
in
rain mn
in
humidity
%
barometer
mb
20260504213204 78 111 7.0 14.0 0.00 0.27 0.23 77 1014.2
20260504212720 78 77 7.0 14.0 0.00 0.27 0.23 78 1014.2
20260504212216 78 101 9.0 14.0 0.00 0.27 0.23 77 1014.3
20260504211631 78 91 8.0 16.0 0.00 0.27 0.23 77 1014.3
20260504211208 78 96 6.0 16.0 0.00 0.27 0.23 78 1014.3
20260504210645 78 84 7.0 17.0 0.00 0.27 0.23 77 1014.4
20260504210201 78 83 6.0 17.0 0.00 0.30 0.23 77 1014.5
20260504205725 78 51 4.0 16.0 0.00 0.30 0.23 77 1014.5
20260504205220 78 42 7.0 16.0 0.00 0.30 0.23 77 1014.6
20260504204634 78 67 7.0 13.0 0.00 0.30 0.23 77 1014.5
20260504204152 78 65 8.0 17.0 0.00 0.30 0.23 77 1014.4
20260504203707 78 32 6.0 17.0 0.00 0.30 0.23 77 1014.4
20260504203202 78 96 8.0 15.0 0.00 0.30 0.23 76 1014.5
20260504202718 78 71 10.0 17.0 0.00 0.30 0.23 76 1014.5
20260504202134 78 78 9.0 17.0 0.00 0.30 0.23 76 1014.6
20260504201631 78 80 8.0 15.0 0.00 0.30 0.23 77 1014.6
20260504201149 78 96 7.0 17.0 0.00 0.30 0.23 78 1014.7
20260504200645 78 87 10.0 17.0 0.00 0.30 0.23 77 1014.7
20260504200142 78 99 7.0 16.0 0.00 0.31 0.23 77 1014.8
20260504195730 78 56 8.0 17.0 0.00 0.31 0.23 77 1014.8
20260504195647 78 56 8.0 17.0 0.00 0.31 0.23 77 1014.8
20260504195202 78 92 9.0 17.0 0.00 0.31 0.23 76 1015.0
20260504194658 78 70 10.0 17.0 0.00 0.31 0.23 76 1014.9
20260504194214 78 81 10.0 16.0 0.00 0.31 0.23 76 1015.0
20260504194131 78 81 10.0 16.0 0.00 0.31 0.23 76 1015.0
20260504193728 79 53 8.0 17.0 0.00 0.31 0.23 77 1015.1
20260504193646 79 53 8.0 17.0 0.00 0.31 0.23 77 1015.1
20260504193144 79 81 8.0 17.0 0.00 0.31 0.23 76 1015.1
20260504192742 79 78 10.0 17.0 0.00 0.31 0.23 76 1015.1
20260504192135 79 76 8.0 18.0 0.00 0.31 0.23 76 1015.2
20260504191714 79 94 8.0 18.0 0.00 0.31 0.23 75 1015.3
20260504191210 79 10 9.0 17.0 0.00 0.31 0.23 75 1015.3
20260504190646 79 98 10.0 17.0 0.00 0.31 0.23 74 1015.4
20260504190203 79 77 8.0 16.0 0.00 0.31 0.23 76 1015.3
20260504185713 79 90 9.0 16.0 0.00 0.31 0.23 75 1015.4
20260504185144 80 63 7.0 18.0 0.00 0.31 0.23 76 1015.3
20260504184645 79 115 11.0 18.0 0.00 0.31 0.23 76 1015.3
20260504184238 79 62 11.0 22.0 0.00 0.31 0.23 76 1015.3
20260504184156 79 62 11.0 22.0 0.00 0.31 0.23 76 1015.3
20260504183631 79 92 8.0 22.0 0.00 0.31 0.23 77 1015.3
20260504183132 79 59 10.0 18.0 0.00 0.31 0.23 76 1015.4
20260504182628 79 107 9.0 19.0 0.00 0.31 0.23 76 1015.4
20260504182145 79 94 11.0 19.0 0.00 0.31 0.23 76 1015.5
20260504181642 79 38 6.0 19.0 0.00 0.31 0.23 79 1015.4
20260504181238 78 77 8.0 19.0 0.00 0.31 0.23 78 1015.5
20260504181156 78 77 8.0 19.0 0.00 0.31 0.23 78 1015.5
20260504180652 79 66 10.0 17.0 0.00 0.31 0.23 77 1015.6
20260504180131 79 142 9.0 17.0 0.00 0.35 0.23 76 1015.6
20260504175640 79 49 6.0 17.0 0.00 0.35 0.23 77 1015.6
20260504175218 79 88 6.0 17.0 0.00 0.35 0.23 79 1015.6
20260504174634 79 86 9.0 17.0 0.00 0.35 0.23 78 1015.6
20260504174132 79 90 11.0 16.0 0.00 0.35 0.23 78 1015.7
20260504173746 79 61 9.0 21.0 0.00 0.35 0.23 79 1015.8
20260504173643 79 61 9.0 21.0 0.00 0.35 0.23 79 1015.8
20260504173222 78 84 7.0 21.0 0.00 0.35 0.23 80 1015.8
20260504172658 78 320 11.0 20.0 0.00 0.35 0.23 80 1015.8
20260504172135 78 105 9.0 17.0 0.00 0.35 0.23 80 1015.8
20260504171652 77 92 9.0 17.0 0.00 0.35 0.23 81 1015.8
20260504171247 77 79 6.0 18.0 0.00 0.35 0.23 81 1015.9
20260504170641 76 90 7.0 18.0 0.00 0.35 0.23 81 1016.0
20260504170157 76 74 7.0 15.0 0.00 0.35 0.23 82 1016.2
20260504160142 77 87 5.0 17.0 0.02 0.35 0.23 88 1016.4
20260504151141 73 58 9.0 16.0 0.07 0.35 0.23 91 1016.5
20260504150637 73 355 6.0 17.0 0.06 0.34 0.22 91 1016.7
20260504150213 74 24 7.0 18.0 0.05 0.33 0.21 88 1016.8
20260504141227 76 72 6.0 13.0 0.04 0.28 0.16 88 1015.8
20260504140703 76 67 4.0 16.0 0.04 0.28 0.16 90 1015.7
20260504140200 75 73 6.0 9.0 0.04 0.28 0.16 90 1015.7
20260504130643 76 98 5.0 11.0 0.00 0.24 0.12 92 1015.3
20260504130200 75 78 5.0 12.0 0.00 0.42 0.12 93 1015.2
20260504120202 73 336 3.0 6.0 0.00 0.43 0.12 97 1014.5
20260504110658 72 336 1.0 2.0 0.06 0.43 0.12 96 1014.0
20260504110136 72 336 1.0 2.0 0.07 0.43 0.12 96 1013.8
20260504100207 73 339 2.0 5.0 0.01 0.36 0.05 96 1013.7
20260504081631 72 350 4.0 13.0 0.03 0.35 0.04 93 1012.9
20260504081149 74 96 3.0 6.0 0.03 0.35 0.04 95 1012.8
20260504080646 74 96 0.0 3.0 0.02 0.34 0.03 95 1012.9
20260504080204 74 96 1.0 3.0 0.02 0.34 0.03 94 1013.0
20260504070138 75 96 2.0 6.0 0.00 0.32 0.01 93 1013.7
20260504060131 75 96 0.0 0.0 0.01 0.32 0.01 91 1014.3
20260504050658 76 96 0.0 0.0 0.00 0.31 0.00 88 1015.0
20260504050155 76 96 0.0 3.0 0.00 0.31 0.00 88 1015.1
20260504045642 76 96 0.0 4.0 0.00 0.31 0.00 88 1015.1
20260504045201 76 96 1.0 4.0 0.00 0.31 0.00 88 1015.1
20260504044638 76 96 1.0 6.0 0.00 0.31 0.00 88 1014.9
20260504044156 76 96 2.0 6.0 0.00 0.31 0.00 88 1014.8
20260504043654 76 96 2.0 6.0 0.00 0.31 0.00 88 1014.9
20260504043150 76 96 3.0 9.0 0.00 0.31 0.00 88 1014.9
20260504042632 76 96 2.0 9.0 0.00 0.31 0.00 88 1014.8
20260504042128 76 82 3.0 5.0 0.00 0.31 0.00 88 1014.9
20260504041720 76 82 2.0 5.0 0.00 0.31 0.00 88 1015.1
20260504041139 75 82 3.0 5.0 0.00 0.31 0.00 89 1015.2
20260504040655 75 82 2.0 6.0 0.00 0.31 0.00 89 1015.5
20260504040132 75 82 1.0 4.0 0.00 0.31 0.31 89 1015.4
20260504035640 75 82 0.0 4.0 0.00 0.31 0.31 89 1015.7
20260504035217 75 82 0.0 4.0 0.00 0.31 0.31 89 1015.4
20260504034633 75 82 0.0 5.0 0.00 0.31 0.31 89 1015.4
20260504034131 75 82 2.0 6.0 0.00 0.31 0.31 89 1015.4
20260504033628 75 82 1.0 6.0 0.00 0.31 0.31 89 1015.5
20260504033207 75 82 2.0 9.0 0.00 0.31 0.31 89 1015.4
20260504032704 75 82 3.0 9.0 0.00 0.31 0.31 89 1015.5
20260504032241 75 78 3.0 8.0 0.00 0.31 0.31 90 1015.7
20260504032138 75 78 3.0 8.0 0.00 0.31 0.31 90 1015.7
20260504031633 75 46 4.0 6.0 0.00 0.31 0.31 90 1015.5
20260504031225 75 69 0.0 7.0 0.00 0.31 0.31 90 1015.6
20260504030640 75 55 2.0 9.0 0.00 0.31 0.31 90 1015.6
20260504030141 75 81 1.0 8.0 0.00 0.31 0.31 90 1015.5
20260504025649 75 82 4.0 8.0 0.00 0.31 0.31 90 1015.5
20260504025146 75 82 3.0 8.0 0.00 0.31 0.31 90 1015.7
20260504024720 75 82 2.0 5.0 0.00 0.31 0.31 90 1016.0
20260504024140 75 82 1.0 5.0 0.00 0.31 0.31 90 1015.9
20260504023637 75 82 2.0 9.0 0.00 0.31 0.31 90 1015.9
20260504023155 75 83 1.0 9.0 0.00 0.31 0.31 90 1015.6
20260504022728 75 65 3.0 9.0 0.00 0.31 0.31 90 1015.4
20260504022244 75 39 3.0 7.0 0.00 0.31 0.31 90 1015.6
20260504021719 75 24 3.0 10.0 0.00 0.31 0.31 90 1015.8
20260504021637 75 24 3.0 10.0 0.00 0.31 0.31 90 1015.8
20260504021135 75 34 3.0 10.0 0.00 0.31 0.31 89 1015.6
20260504020651 75 70 3.0 11.0 0.00 0.31 0.31 89 1015.6
20260504020227 75 65 4.0 11.0 0.00 0.31 0.31 89 1015.9
20260504015633 75 16 2.0 8.0 0.00 0.31 0.31 89 1015.9
20260504015210 75 80 2.0 8.0 0.00 0.31 0.31 89 1015.9
20260504014706 75 80 2.0 9.0 0.00 0.31 0.31 89 1015.7
20260504014242 75 81 4.0 9.0 0.00 0.31 0.31 89 1015.5
20260504013638 75 82 3.0 8.0 0.00 0.31 0.31 90 1015.6
20260504013215 75 74 2.0 5.0 0.00 0.31 0.31 90 1015.6
20260504012631 75 66 2.0 5.0 0.00 0.31 0.31 90 1015.5
20260504012128 75 63 1.0 10.0 0.00 0.31 0.31 90 1015.6
20260504011707 75 13 2.0 10.0 0.00 0.31 0.31 90 1015.6
20260504011223 75 22 3.0 6.0 0.00 0.31 0.31 90 1015.5
20260504010738 75 5 2.0 8.0 0.00 0.31 0.31 90 1015.5
20260504010656 75 5 2.0 8.0 0.00 0.31 0.31 90 1015.5
20260504010132 74 5 2.0 8.0 0.00 0.31 0.31 90 1015.5
20260504005700 74 12 3.0 6.0 0.00 0.31 0.31 90 1015.4
20260504005136 74 13 2.0 9.0 0.00 0.31 0.31 90 1015.3
20260504004715 74 37 2.0 9.0 0.00 0.31 0.31 89 1015.3
20260504004131 74 60 0.0 9.0 0.00 0.31 0.31 89 1015.2
20260504003628 74 5 3.0 9.0 0.00 0.31 0.31 89 1015.1
20260504003145 74 21 3.0 7.0 0.00 0.31 0.31 89 1015.0
20260504002642 74 70 2.0 9.0 0.00 0.31 0.31 89 1015.0
20260504002200 74 86 4.0 10.0 0.00 0.31 0.31 89 1014.7
20260504001637 74 24 4.0 11.0 0.00 0.31 0.31 90 1014.7
20260504001214 74 355 5.0 11.0 0.00 0.31 0.31 90 1014.8
20260504000630 74 46 3.0 10.0 0.00 0.31 0.31 90 1014.8
20260504000128 74 40 2.0 8.0 0.00 0.31 0.31 90 1014.7
20260503235637 74 32 2.0 10.0 0.00 0.31 0.31 91 1014.7
20260503235235 74 66 4.0 10.0 0.00 0.31 0.31 91 1014.7
20260503235152 74 66 4.0 10.0 0.00 0.31 0.31 91 1014.7
20260503234629 74 30 5.0 11.0 0.00 0.31 0.31 91 1014.6
20260503234207 74 24 6.0 11.0 0.00 0.31 0.31 91 1014.5
20260503233744 74 339 4.0 11.0 0.00 0.31 0.31 92 1014.5
20260503233701 74 339 4.0 11.0 0.00 0.31 0.31 92 1014.5
20260503233140 74 56 3.0 9.0 0.00 0.31 0.31 92 1014.6
20260503232639 74 33 4.0 13.0 0.00 0.31 0.31 92 1014.7
20260503232217 74 42 5.0 13.0 0.00 0.31 0.31 92 1014.5
20260503231652 74 23 5.0 11.0 0.00 0.31 0.31 92 1014.5
20260503231128 74 46 4.0 12.0 0.00 0.31 0.31 92 1014.5
20260503230645 74 69 4.0 12.0 0.00 0.31 0.31 93 1014.5
20260503230204 74 34 3.0 7.0 0.00 0.31 0.31 93 1014.4
20260503225651 74 65 2.0 7.0 0.00 0.31 0.31 93 1014.5
20260503225129 74 31 3.0 9.0 0.00 0.31 0.31 93 1014.5
20260503224628 74 56 4.0 9.0 0.00 0.31 0.31 93 1014.6
20260503224206 74 27 4.0 9.0 0.00 0.31 0.31 93 1014.5
20260503223644 74 78 3.0 9.0 0.00 0.31 0.31 93 1014.5
20260503223143 74 345 3.0 8.0 0.00 0.31 0.31 93 1014.4
20260503222641 74 46 3.0 9.0 0.00 0.31 0.31 93 1014.4
20260503222219 74 11 4.0 9.0 0.00 0.31 0.31 93 1014.4
20260503221636 74 360 2.0 10.0 0.00 0.31 0.31 93 1014.6
20260503221135 74 360 5.0 10.0 0.00 0.31 0.31 93 1014.6
20260503220732 74 40 3.0 12.0 0.02 0.31 0.31 93 1014.6
20260503220225 74 9 6.0 12.0 0.04 0.31 0.31 93 1014.6
20260503215649 74 41 2.0 11.0 0.06 0.31 0.31 94 1014.6
20260503215146 74 38 4.0 11.0 0.06 0.31 0.31 93 1014.6
20260503214642 74 28 2.0 8.0 0.06 0.31 0.31 94 1014.5
20260503214137 74 60 2.0 10.0 0.07 0.31 0.31 94 1014.4
20260503213634 75 13 3.0 10.0 0.07 0.31 0.31 94 1014.4